sat.trackr.live / text

‹ back to catalog

STARLINK-36764

NORAD 68963 · 2026-099N

PAYLOAD ACTIVE UNKNOWN

§ Identity

Operator
Country
US
Launch date
2026-05-01
Launch site
AFETR
Launch vehicle
Mass (kg)
RCS (m²)

Purposes: comms

External: N2YO · Heavens-Above · Gunter

§ Orbital elements

Epoch: 2026-05-25T04:00:03.998880Z

Period
91.88 min
Inclination
53.1592°
Eccentricity
0.0000696
Mean motion
15.67246952 rev/d
Perigee alt
366.3 km
Apogee alt
367.3 km
Semi-major
6,744.9 km
B*
-1.9430e-2
RAAN
269.9959°
Arg perigee
71.3535°
Mean anomaly
258.9042°
Rev number
501

§ Raw data

STARLINK-367641 68963U 26099N   26145.16671295 -.01888177  00000+0 -19430-1 0  99922 68963  53.1592 269.9959 0000696  71.3535 258.9042 15.67246952  5016

JSON: /api/v1/satellites/68963 · /tle

For live sub-satellite position, see the globe view (requires WebGL).

§ Visibility from observer

Set your observer location to see the next 7 days of passes ≥ 10°. The values pass through the URL so the page stays shareable.

No JS? Fill the form by hand. The geolocation button needs JavaScript.